,,PA_Meas_PMT16A,,PR_Meas_QMR101_102,,RH_Meas_QMH101,,SR_Meas_QMS101,,TA_Meas_QMH101,,GenWind,,GenWind,
time,status,PA,status,PR,status,RH,status,SR,status,TA,status,DirAvg,status,SpdAvg,
2011-03-22, 00:00:04,VALID,918.685,VALID,0,VALID,93.4707,VALID,0,VALID,17.5194,VALID,85,VALID,0.423828,
2011-03-22, 00:01:04,VALID,918.682,VALID,0,VALID,93.3564,VALID,0,VALID,17.5208,VALID,85,VALID,0.327734,
2011-03-22, 00:02:04,VALID,918.673,VALID,0,VALID,93.7909,VALID,0,VALID,17.5598,VALID,85,VALID,0.176172,
2011-03-22, 00:03:04,VALID,918.666,VALID,0,VALID,93.9357,VALID,0,VALID,17.5598,VALID,85,VALID,0.101953,
2011-03-22, 00:04:04,VALID,918.671,VALID,0,VALID,94.2635,VALID,0.107441,VALID,17.5779,VALID,85,VALID,0.0351563,
2011-03-22, 00:05:04,VALID,918.643,VALID,0.2,VALID,94.4084,VALID,0.107441,VALID,17.6377,VALID,85,VALID,0.352734,
2011-03-22, 00:06:04,VALID,918.623,VALID,0,VALID,94.0958,VALID,0,VALID,17.5987,VALID,85,VALID,0.2875,
2011-03-22, 00:07:04,VALID,918.639,VALID,0,VALID,93.9205,VALID,0.107441,VALID,17.5779,VALID,85,VALID,0.221484,
2011-03-22, 00:08:04,VALID,918.615,VALID,0,VALID,93.89,VALID,0,VALID,17.5584,VALID,85,VALID,0,
2011-03-22, 00:09:04,VALID,918.603,VALID,0,VALID,94.1568,VALID,0,VALID,17.6377,VALID,85,VALID,0.126563,
2011-03-22, 00:10:04,VALID,918.544,VALID,0,VALID,94.2635,VALID,0.107441,VALID,17.6169,VALID,85,VALID,0.00195313,
2011-03-22, 00:11:04,VALID,918.51,VALID,0.2,VALID,94.2559,VALID,0.107441,VALID,17.6169,VALID,85,VALID,0.277734,
2011-03-22, 00:12:04,VALID,918.486,VALID,0,VALID,94.1492,VALID,0,VALID,17.5584,VALID,85,VALID,0.403125,
2011-03-22, 00:13:04,VALID,918.469,VALID,0,VALID,94.0958,VALID,0,VALID,17.5584,VALID,85,VALID,0.528125,
2011-03-22, 00:14:04,VALID,918.445,VALID,0,VALID,94.3474,VALID,0,VALID,17.5779,VALID,85,VALID,0.500781,
2011-03-22, 00:15:04,VALID,918.444,VALID,0,VALID,94.5304,VALID,0.107441,VALID,17.5584,VALID,85,VALID,0.442578,
2011-03-22, 00:16:04,VALID,918.391,VALID,0,VALID,94.6295,VALID,0.107441,VALID,17.5792,VALID,85,VALID,0.611328,
2011-03-22, 00:17:04,VALID,918.361,VALID,0,VALID,94.7819,VALID,0,VALID,17.5598,VALID,85,VALID,0.401563,
2011-03-22, 00:18:04,VALID,918.356,VALID,0,VALID,94.881,VALID,0,VALID,17.5389,VALID,85,VALID,0.653906,
2011-03-22, 00:19:04,VALID,918.345,VALID,0.2,VALID,94.8963,VALID,0,VALID,17.5,VALID,85,VALID,0.558203,
2011-03-22, 00:20:04,VALID,918.301,VALID,0,VALID,94.9115,VALID,0,VALID,17.5013,VALID,85,VALID,0.385547,
2011-03-22, 00:21:04,VALID,918.318,VALID,0,VALID,94.7972,VALID,0,VALID,17.4623,VALID,85,VALID,0.583594,
2011-03-22, 00:22:04,VALID,918.272,VALID,0,VALID,94.7667,VALID,0.107441,VALID,17.4415,VALID,85,VALID,0.559375,
2011-03-22, 00:23:04,VALID,918.259,VALID,0,VALID,94.9039,VALID,0,VALID,17.422,VALID,85,VALID,0.270312,
2011-03-22, 00:24:04,VALID,918.226,VALID,0,VALID,94.8734,VALID,0,VALID,17.4428,VALID,85,VALID,0.615625,
2011-03-22, 00:25:04,VALID,918.214,VALID,0,VALID,94.9496,VALID,0.107441,VALID,17.4233,VALID,85,VALID,0.364844,
2011-03-22, 00:26:04,VALID,918.201,VALID,0,VALID,95.0335,VALID,0.107441,VALID,17.4025,VALID,85,VALID,0.484766,
2011-03-22, 00:27:04,VALID,918.162,VALID,0,VALID,95.0335,VALID,0.107441,VALID,17.4038,VALID,85,VALID,0.599609,
2011-03-22, 00:28:04,VALID,918.202,VALID,0,VALID,95.1783,VALID,0,VALID,17.4038,VALID,85,VALID,0.585547,
2011-03-22, 00:29:04,VALID,918.144,VALID,0,VALID,95.1174,VALID,0.107441,VALID,17.383,VALID,85,VALID,0.627734,
2011-03-22, 00:30:04,VALID,918.133,VALID,0,VALID,94.9268,VALID,0,VALID,17.3649,VALID,85,VALID,0.546094,
2011-03-22, 00:31:04,VALID,918.126,VALID,0,VALID,94.8963,VALID,0,VALID,17.3635,VALID,85,VALID,0.628125,
2011-03-22, 00:32:04,VALID,918.082,VALID,0,VALID,94.9115,VALID,0,VALID,17.3844,VALID,85,VALID,0.351563,
2011-03-22, 00:33:04,VALID,918.068,VALID,0,VALID,94.8734,VALID,0,VALID,17.3844,VALID,85,VALID,0.658203,
2011-03-22, 00:34:04,VALID,918.071,VALID,0.2,VALID,94.9496,VALID,0,VALID,17.4038,VALID,85,VALID,0.431641,
2011-03-22, 00:35:04,VALID,918.097,VALID,0,VALID,94.9496,VALID,0,VALID,17.383,VALID,85,VALID,0.567969,
2011-03-22, 00:36:04,VALID,918.061,VALID,0,VALID,94.8887,VALID,0,VALID,17.4038,VALID,85,VALID,0.491016,
2011-03-22, 00:37:04,VALID,918.096,VALID,0,VALID,94.8887,VALID,0,VALID,17.383,VALID,85,VALID,0.580078,
2011-03-22, 00:38:04,VALID,918.095,VALID,0,VALID,94.7972,VALID,0.107441,VALID,17.4025,VALID,85,VALID,0.285937,
2011-03-22, 00:39:04,VALID,918.042,VALID,0,VALID,94.8658,VALID,0,VALID,17.4428,VALID,85,VALID,0.360938,
2011-03-22, 00:40:04,VALID,918.028,VALID,0,VALID,94.9496,VALID,0.107441,VALID,17.4623,VALID,85,VALID,0.291797,
2011-03-22, 00:41:04,VALID,918.035,VALID,0,VALID,94.9725,VALID,0,VALID,17.4818,VALID,85,VALID,0.224609,
2011-03-22, 00:42:04,VALID,917.974,VALID,0,VALID,94.7286,VALID,0,VALID,17.4623,VALID,85,VALID,0.276172,
2011-03-22, 00:43:04,VALID,917.954,VALID,0,VALID,94.6981,VALID,0,VALID,17.461,VALID,85,VALID,0.410156,
2011-03-22, 00:44:04,VALID,917.935,VALID,0,VALID,94.6447,VALID,0,VALID,17.5013,VALID,85,VALID,0.180078,
2011-03-22, 00:45:04,VALID,917.896,VALID,0,VALID,94.1721,VALID,0,VALID,17.4623,VALID,85,VALID,0.486328,
2011-03-22, 00:46:04,VALID,917.877,VALID,0,VALID,94.012,VALID,0,VALID,17.4805,VALID,85,VALID,0.327344,
2011-03-22, 00:47:04,VALID,917.818,VALID,0,VALID,94.1873,VALID,0,VALID,17.5208,VALID,85,VALID,0.263281,
2011-03-22, 00:48:04,VALID,917.785,VALID,0,VALID,94.2102,VALID,0,VALID,17.5208,VALID,85,VALID,0.250391,
2011-03-22, 00:49:04,VALID,917.764,VALID,0,VALID,94.4389,VALID,0,VALID,17.5194,VALID,85,VALID,0,
2011-03-22, 00:50:04,VALID,917.747,VALID,0,VALID,94.5913,VALID,0,VALID,17.5403,VALID,85,VALID,0.205859,
2011-03-22, 00:51:04,VALID,917.728,VALID,0,VALID,94.7209,VALID,0,VALID,17.5194,VALID,85,VALID,0.308984,
2011-03-22, 00:52:04,VALID,917.7,VALID,0,VALID,94.881,VALID,0,VALID,17.5403,VALID,85,VALID,0.290625,
2011-03-22, 00:53:04,VALID,917.689,VALID,0,VALID,95.1097,VALID,0,VALID,17.5,VALID,85,VALID,0.351953,
2011-03-22, 00:54:04,VALID,917.685,VALID,0,VALID,95.1555,VALID,0,VALID,17.4818,VALID,85,VALID,0.229297,
2011-03-22, 00:55:04,VALID,917.671,VALID,0,VALID,95.0716,VALID,0.107441,VALID,17.4428,VALID,85,VALID,0.611328,
2011-03-22, 00:56:04,VALID,917.656,VALID,0,VALID,95.0335,VALID,0,VALID,17.3844,VALID,85,VALID,0.586328,
2011-03-22, 00:57:04,VALID,917.641,VALID,0,VALID,94.9192,VALID,0,VALID,17.3259,VALID,85,VALID,0.679688,
2011-03-22, 00:58:04,VALID,917.662,VALID,0,VALID,94.8963,VALID,0.107441,VALID,17.3064,VALID,85,VALID,0.6375,
2011-03-22, 00:59:04,VALID,917.664,VALID,0,VALID,95.0488,VALID,0,VALID,17.2869,VALID,85,VALID,0.659375,
2011-03-22, 01:00:04,VALID,917.616,VALID,0,VALID,95.2698,VALID,0,VALID,17.3259,VALID,85,VALID,0.977344,
2011-03-22, 01:01:04,VALID,917.622,VALID,0,VALID,95.2546,VALID,0.107441,VALID,17.3064,VALID,85,VALID,0.975391,
2011-03-22, 01:02:04,VALID,917.618,VALID,0,VALID,95.3003,VALID,0,VALID,17.2856,VALID,85,VALID,1.09453,
2011-03-22, 01:03:04,VALID,917.557,VALID,0,VALID,95.4223,VALID,0.107441,VALID,17.2856,VALID,150,VALID,1.02422,
2011-03-22, 01:04:04,VALID,917.559,VALID,0,VALID,95.5519,VALID,0,VALID,17.2856,VALID,151,VALID,0.798828,
2011-03-22, 01:05:04,VALID,917.563,VALID,0,VALID,95.6662,VALID,0,VALID,17.3051,VALID,138,VALID,0.899609,
2011-03-22, 01:06:04,VALID,917.561,VALID,0,VALID,95.8111,VALID,0.107441,VALID,17.2856,VALID,132,VALID,0.589453,
2011-03-22, 01:07:04,VALID,917.508,VALID,0,VALID,95.895,VALID,0,VALID,17.2869,VALID,132,VALID,0.877734,
2011-03-22, 01:08:04,VALID,917.528,VALID,0,VALID,95.9941,VALID,0,VALID,17.2869,VALID,153,VALID,0.769922,
2011-03-22, 01:09:04,VALID,917.525,VALID,0,VALID,96.0779,VALID,0,VALID,17.2674,VALID,145,VALID,0.676953,
2011-03-22, 01:10:04,VALID,917.475,VALID,0,VALID,96.0855,VALID,0.107441,VALID,17.2077,VALID,133,VALID,1.12773,
2011-03-22, 01:11:04,VALID,917.493,VALID,0,VALID,96.1313,VALID,0,VALID,17.1882,VALID,132,VALID,0.967188,
2011-03-22, 01:12:04,VALID,917.499,VALID,0,VALID,96.1694,VALID,0,VALID,17.1895,VALID,132,VALID,0.863281,
2011-03-22, 01:13:04,VALID,917.511,VALID,0,VALID,96.2228,VALID,0,VALID,17.1895,VALID,131,VALID,1.17617,
2011-03-22, 01:14:04,VALID,917.508,VALID,0,VALID,96.2456,VALID,0,VALID,17.1895,VALID,121,VALID,0.5375,
2011-03-22, 01:15:04,VALID,917.512,VALID,0,VALID,96.299,VALID,0,VALID,17.1895,VALID,155,VALID,0.481641,
2011-03-22, 01:16:04,VALID,917.468,VALID,0.2,VALID,96.3447,VALID,0,VALID,17.1882,VALID,155,VALID,0.572656,
2011-03-22, 01:17:04,VALID,917.459,VALID,0,VALID,96.3752,VALID,0.107441,VALID,17.209,VALID,149,VALID,0.78125,
2011-03-22, 01:18:04,VALID,917.459,VALID,0,VALID,96.3752,VALID,0,VALID,17.1882,VALID,138,VALID,0.703516,
2011-03-22, 01:19:04,VALID,917.404,VALID,0,VALID,96.3676,VALID,0,VALID,17.1895,VALID,138,VALID,0.606641,
2011-03-22, 01:20:04,VALID,917.387,VALID,0,VALID,96.4057,VALID,0,VALID,17.209,VALID,138,VALID,0.745703,
2011-03-22, 01:21:04,VALID,917.366,VALID,0,VALID,96.4133,VALID,0.107441,VALID,17.1687,VALID,138,VALID,0.780859,
2011-03-22, 01:22:04,VALID,917.359,VALID,0,VALID,96.3981,VALID,0,VALID,17.1882,VALID,138,VALID,0.803906,
2011-03-22, 01:23:04,VALID,917.322,VALID,0,VALID,96.4057,VALID,0,VALID,17.1895,VALID,138,VALID,0.93125,
2011-03-22, 01:24:04,VALID,917.258,VALID,0,VALID,96.3524,VALID,0.107441,VALID,17.17,VALID,138,VALID,1.02539,
2011-03-22, 01:25:04,VALID,917.263,VALID,0,VALID,96.3295,VALID,0.107441,VALID,17.1297,VALID,137,VALID,0.744531,
2011-03-22, 01:26:04,VALID,917.231,VALID,0,VALID,96.3676,VALID,0,VALID,17.17,VALID,137,VALID,0.608203,
2011-03-22, 01:27:04,VALID,917.241,VALID,0,VALID,96.3676,VALID,0,VALID,17.1492,VALID,128,VALID,0.953125,
2011-03-22, 01:28:04,VALID,917.194,VALID,0,VALID,96.36,VALID,0,VALID,17.1687,VALID,131,VALID,0.801953,
2011-03-22, 01:29:04,VALID,917.194,VALID,0,VALID,96.3295,VALID,0,VALID,17.1895,VALID,132,VALID,0.940234,
2011-03-22, 01:30:04,VALID,917.179,VALID,0,VALID,96.3142,VALID,0.107441,VALID,17.1895,VALID,132,VALID,1.08555,
2011-03-22, 01:31:04,VALID,917.169,VALID,0,VALID,96.2685,VALID,0,VALID,17.1895,VALID,132,VALID,1.07578,
2011-03-22, 01:32:04,VALID,917.15,VALID,0,VALID,96.2075,VALID,0,VALID,17.1895,VALID,132,VALID,1.11914,
2011-03-22, 01:33:04,VALID,917.141,VALID,0,VALID,96.1618,VALID,0,VALID,17.1492,VALID,132,VALID,0.723828,
2011-03-22, 01:34:04,VALID,917.134,VALID,0,VALID,96.1313,VALID,0,VALID,17.1895,VALID,132,VALID,0.790625,
2011-03-22, 01:35:04,VALID,917.109,VALID,0,VALID,96.116,VALID,0,VALID,17.17,VALID,132,VALID,0.642187,
2011-03-22, 01:36:04,VALID,917.126,VALID,0,VALID,96.0855,VALID,0,VALID,17.1895,VALID,132,VALID,1.03828,
2011-03-22, 01:37:04,VALID,917.065,VALID,0,VALID,96.0398,VALID,0,VALID,17.209,VALID,132,VALID,1.16562,
2011-03-22, 01:38:04,VALID,917.081,VALID,0,VALID,96.0322,VALID,0,VALID,17.17,VALID,132,VALID,1.34297,
2011-03-22, 01:39:04,VALID,917.052,VALID,0,VALID,95.9941,VALID,0,VALID,17.1492,VALID,132,VALID,1.09219,
2011-03-22, 01:40:04,VALID,917.039,VALID,0,VALID,96.0245,VALID,0,VALID,17.17,VALID,132,VALID,1.05117,
2011-03-22, 01:41:04,VALID,917.014,VALID,0,VALID,96.0017,VALID,0,VALID,17.17,VALID,132,VALID,1.1043,
2011-03-22, 01:42:04,VALID,916.992,VALID,0,VALID,96.0093,VALID,0,VALID,17.17,VALID,132,VALID,0.645312,
2011-03-22, 01:43:04,VALID,916.986,VALID,0,VALID,96.0245,VALID,0,VALID,17.1492,VALID,132,VALID,0.780469,
2011-03-22, 01:44:04,VALID,916.988,VALID,0,VALID,96.0398,VALID,0,VALID,17.17,VALID,132,VALID,0.446484,
2011-03-22, 01:45:04,VALID,916.961,VALID,0,VALID,96.0322,VALID,0,VALID,17.17,VALID,132,VALID,0.751172,
2011-03-22, 01:46:04,VALID,916.935,VALID,0,VALID,96.0245,VALID,0,VALID,17.1895,VALID,132,VALID,0.850781,
2011-03-22, 01:47:04,VALID,916.912,VALID,0,VALID,95.9864,VALID,0,VALID,17.1895,VALID,132,VALID,0.741797,
2011-03-22, 01:48:04,VALID,916.941,VALID,0,VALID,95.9788,VALID,0.107441,VALID,17.1492,VALID,142,VALID,0.930469,
2011-03-22, 01:49:04,VALID,916.913,VALID,0,VALID,95.9178,VALID,0,VALID,17.1492,VALID,142,VALID,0.961328,
2011-03-22, 01:50:04,VALID,916.914,VALID,0,VALID,95.8416,VALID,0,VALID,17.1882,VALID,142,VALID,0.99375,
2011-03-22, 01:51:04,VALID,916.909,VALID,0,VALID,95.7654,VALID,0,VALID,17.2285,VALID,142,VALID,1.08008,
2011-03-22, 01:52:04,VALID,916.886,VALID,0,VALID,95.7196,VALID,0,VALID,17.1882,VALID,142,VALID,0.889063,
2011-03-22, 01:53:04,VALID,916.857,VALID,0,VALID,95.7577,VALID,0,VALID,17.2479,VALID,141,VALID,0.994922,
2011-03-22, 01:54:04,VALID,916.894,VALID,0,VALID,95.8111,VALID,0,VALID,17.2479,VALID,141,VALID,0.640625,
2011-03-22, 01:55:04,VALID,916.87,VALID,0,VALID,95.8645,VALID,0,VALID,17.2869,VALID,141,VALID,0.688281,
2011-03-22, 01:56:04,VALID,916.852,VALID,0,VALID,95.9559,VALID,0,VALID,17.2869,VALID,141,VALID,1.13398,
2011-03-22, 01:57:04,VALID,916.891,VALID,0,VALID,96.0322,VALID,0,VALID,17.2674,VALID,140,VALID,0.866406,
2011-03-22, 01:58:04,VALID,916.887,VALID,0,VALID,96.055,VALID,0,VALID,17.2674,VALID,139,VALID,1.00781,
2011-03-22, 01:59:04,VALID,916.903,VALID,0,VALID,96.1313,VALID,0,VALID,17.2479,VALID,139,VALID,0.997266,
2011-03-22, 02:00:04,VALID,916.869,VALID,0,VALID,96.1846,VALID,0,VALID,17.1882,VALID,138,VALID,1.05938,
2011-03-22, 02:01:04,VALID,916.893,VALID,0,VALID,96.2533,VALID,0,VALID,17.1882,VALID,138,VALID,0.792578,
2011-03-22, 02:02:04,VALID,916.892,VALID,0,VALID,96.299,VALID,0,VALID,17.1882,VALID,137,VALID,1.09883,
2011-03-22, 02:03:04,VALID,916.897,VALID,0,VALID,96.3219,VALID,0,VALID,17.209,VALID,137,VALID,1.15117,
2011-03-22, 02:04:04,VALID,916.893,VALID,0,VALID,96.2837,VALID,0,VALID,17.1505,VALID,137,VALID,1.4707,
2011-03-22, 02:05:04,VALID,916.852,VALID,0,VALID,96.238,VALID,0,VALID,17.17,VALID,137,VALID,1.15977,
2011-03-22, 02:06:04,VALID,916.838,VALID,0,VALID,96.2151,VALID,0,VALID,17.1505,VALID,142,VALID,1.18125,
2011-03-22, 02:07:04,VALID,916.839,VALID,0,VALID,96.1923,VALID,0,VALID,17.1687,VALID,130,VALID,1.06016,
2011-03-22, 02:08:04,VALID,916.826,VALID,0,VALID,96.1084,VALID,0,VALID,17.17,VALID,135,VALID,1.11602,
2011-03-22, 02:09:04,VALID,916.856,VALID,0,VALID,96.0855,VALID,0,VALID,17.1895,VALID,135,VALID,1.17031,
2011-03-22, 02:10:04,VALID,916.823,VALID,0,VALID,96.1313,VALID,0,VALID,17.2285,VALID,135,VALID,0.941406,
2011-03-22, 02:11:04,VALID,916.816,VALID,0,VALID,96.1389,VALID,0,VALID,17.2479,VALID,138,VALID,1.1043,
2011-03-22, 02:12:04,VALID,916.81,VALID,0,VALID,96.1541,VALID,0,VALID,17.1895,VALID,139,VALID,1.29023,
2011-03-22, 02:13:04,VALID,916.809,VALID,0,VALID,96.1846,VALID,0,VALID,17.209,VALID,139,VALID,1.30313,
2011-03-22, 02:14:04,VALID,916.802,VALID,0,VALID,96.1694,VALID,0,VALID,17.2103,VALID,139,VALID,0.960156,
2011-03-22, 02:15:04,VALID,916.803,VALID,0,VALID,96.1694,VALID,0,VALID,17.1895,VALID,139,VALID,1.26133,
2011-03-22, 02:16:04,VALID,916.815,VALID,0,VALID,96.1465,VALID,0,VALID,17.209,VALID,139,VALID,0.917578,
2011-03-22, 02:17:04,VALID,916.815,VALID,0,VALID,96.1313,VALID,0,VALID,17.209,VALID,139,VALID,0.9375,
2011-03-22, 02:18:04,VALID,916.844,VALID,0,VALID,96.0703,VALID,0,VALID,17.17,VALID,139,VALID,1.0957,
2011-03-22, 02:19:04,VALID,916.794,VALID,0,VALID,96.0322,VALID,0,VALID,17.17,VALID,139,VALID,0.90625,
2011-03-22, 02:20:04,VALID,916.801,VALID,0,VALID,96.0245,VALID,0,VALID,17.17,VALID,139,VALID,1.28398,
2011-03-22, 02:21:04,VALID,916.819,VALID,0,VALID,95.9483,VALID,0,VALID,17.17,VALID,139,VALID,1.3418,
2011-03-22, 02:22:04,VALID,916.795,VALID,0,VALID,95.8263,VALID,0,VALID,17.1882,VALID,139,VALID,1.03594,
2011-03-22, 02:23:04,VALID,916.755,VALID,0,VALID,95.7654,VALID,0,VALID,17.209,VALID,139,VALID,1.1793,
2011-03-22, 02:24:04,VALID,916.743,VALID,0,VALID,95.6434,VALID,0,VALID,17.2285,VALID,122,VALID,1.33789,
2011-03-22, 02:25:04,VALID,916.729,VALID,0,VALID,95.5214,VALID,0,VALID,17.2674,VALID,124,VALID,0.876172,
2011-03-22, 02:26:04,VALID,916.714,VALID,0,VALID,95.4985,VALID,0,VALID,17.2674,VALID,124,VALID,0.671484,
2011-03-22, 02:27:04,VALID,916.659,VALID,0,VALID,95.4452,VALID,0,VALID,17.2674,VALID,124,VALID,0.655469,
2011-03-22, 02:28:04,VALID,916.645,VALID,0,VALID,95.3842,VALID,0,VALID,17.2479,VALID,124,VALID,0.911719,
2011-03-22, 02:29:04,VALID,916.598,VALID,0,VALID,95.3994,VALID,0,VALID,17.2661,VALID,124,VALID,0.726953,
2011-03-22, 02:30:04,VALID,916.573,VALID,0,VALID,95.4147,VALID,0,VALID,17.2869,VALID,124,VALID,0.770703,
2011-03-22, 02:31:04,VALID,916.571,VALID,0,VALID,95.4528,VALID,0,VALID,17.2869,VALID,124,VALID,0.437109,
2011-03-22, 02:32:04,VALID,916.578,VALID,0,VALID,95.4985,VALID,0,VALID,17.3454,VALID,124,VALID,0.431641,
2011-03-22, 02:33:04,VALID,916.543,VALID,0,VALID,95.4452,VALID,0,VALID,17.2674,VALID,124,VALID,0.504687,
2011-03-22, 02:34:04,VALID,916.5,VALID,0,VALID,95.4071,VALID,0,VALID,17.3064,VALID,124,VALID,0.627734,
2011-03-22, 02:35:04,VALID,916.47,VALID,0,VALID,95.3308,VALID,0,VALID,17.3454,VALID,124,VALID,0.697266,
2011-03-22, 02:36:04,VALID,916.444,VALID,0,VALID,95.2622,VALID,0.107441,VALID,17.3441,VALID,124,VALID,0.453906,
2011-03-22, 02:37:04,VALID,916.456,VALID,0,VALID,95.2393,VALID,0.107441,VALID,17.3635,VALID,124,VALID,0.574219,
2011-03-22, 02:38:04,VALID,916.469,VALID,0,VALID,95.2165,VALID,0,VALID,17.3649,VALID,124,VALID,0.522656,
2011-03-22, 02:39:04,VALID,916.437,VALID,0,VALID,95.1936,VALID,0,VALID,17.3844,VALID,124,VALID,0.322656,
2011-03-22, 02:40:04,VALID,916.452,VALID,0,VALID,95.1936,VALID,0.107441,VALID,17.383,VALID,124,VALID,0.740625,
2011-03-22, 02:41:04,VALID,916.462,VALID,0,VALID,95.064,VALID,0,VALID,17.3844,VALID,124,VALID,0.617578,
2011-03-22, 02:42:04,VALID,916.469,VALID,0,VALID,94.9573,VALID,0,VALID,17.3051,VALID,124,VALID,0.673047,
2011-03-22, 02:43:04,VALID,916.446,VALID,0,VALID,94.7896,VALID,0,VALID,17.383,VALID,124,VALID,0.814062,
2011-03-22, 02:44:04,VALID,916.448,VALID,0,VALID,94.7743,VALID,0,VALID,17.3649,VALID,124,VALID,0.627344,
2011-03-22, 02:45:04,VALID,916.441,VALID,0,VALID,94.7591,VALID,0,VALID,17.3454,VALID,124,VALID,0.511328,
2011-03-22, 02:46:04,VALID,916.427,VALID,0,VALID,94.82,VALID,0,VALID,17.3441,VALID,124,VALID,0.580859,
2011-03-22, 02:47:04,VALID,916.432,VALID,0,VALID,94.8429,VALID,0,VALID,17.3454,VALID,124,VALID,0.517969,
2011-03-22, 02:48:04,VALID,916.458,VALID,0,VALID,94.8734,VALID,0,VALID,17.2479,VALID,124,VALID,0.337891,
2011-03-22, 02:49:04,VALID,916.43,VALID,0,VALID,94.9801,VALID,0,VALID,17.2479,VALID,124,VALID,0.297656,
2011-03-22, 02:50:04,VALID,916.461,VALID,0,VALID,94.9725,VALID,0,VALID,17.1882,VALID,124,VALID,0.405078,
2011-03-22, 02:51:04,VALID,916.452,VALID,0,VALID,94.9573,VALID,0.107441,VALID,17.2285,VALID,124,VALID,0.223828,
2011-03-22, 02:52:04,VALID,916.474,VALID,0,VALID,95.0716,VALID,0,VALID,17.1492,VALID,124,VALID,0.138672,
2011-03-22, 02:53:04,VALID,916.453,VALID,0,VALID,95.1097,VALID,0,VALID,17.209,VALID,124,VALID,0,
2011-03-22, 02:54:04,VALID,916.457,VALID,0,VALID,95.1402,VALID,0,VALID,17.2479,VALID,124,VALID,0.393359,
2011-03-22, 02:55:04,VALID,916.404,VALID,0,VALID,95.247,VALID,0,VALID,17.3064,VALID,124,VALID,0.528125,
2011-03-22, 02:56:04,VALID,916.411,VALID,0,VALID,95.3156,VALID,0,VALID,17.2479,VALID,124,VALID,0.355469,
2011-03-22, 02:57:04,VALID,916.415,VALID,0,VALID,95.3537,VALID,0,VALID,17.2077,VALID,124,VALID,0.669922,
2011-03-22, 02:58:04,VALID,916.374,VALID,0,VALID,95.4071,VALID,0,VALID,17.1687,VALID,124,VALID,0.734375,
2011-03-22, 02:59:04,VALID,916.359,VALID,0,VALID,95.4909,VALID,0,VALID,17.2661,VALID,124,VALID,0.461719,
2011-03-22, 03:00:04,VALID,916.336,VALID,0,VALID,95.5976,VALID,0.107441,VALID,17.2466,VALID,124,VALID,0.449219,
2011-03-22, 03:01:04,VALID,916.321,VALID,0,VALID,95.5976,VALID,0.107441,VALID,17.2271,VALID,124,VALID,0.751953,
2011-03-22, 03:02:04,VALID,916.318,VALID,0,VALID,95.5748,VALID,0,VALID,17.1492,VALID,124,VALID,0.714453,
2011-03-22, 03:03:04,VALID,916.291,VALID,0,VALID,95.6434,VALID,0,VALID,17.17,VALID,124,VALID,0.608203,
2011-03-22, 03:04:04,VALID,916.332,VALID,0,VALID,95.712,VALID,0,VALID,17.2077,VALID,124,VALID,0.392969,
2011-03-22, 03:05:04,VALID,916.299,VALID,0,VALID,95.8416,VALID,0.107441,VALID,17.2674,VALID,124,VALID,0.272656,
2011-03-22, 03:06:04,VALID,916.282,VALID,0,VALID,95.8645,VALID,0,VALID,17.2271,VALID,124,VALID,0.708594,
2011-03-22, 03:07:04,VALID,916.239,VALID,0,VALID,95.9102,VALID,0.107441,VALID,17.2661,VALID,124,VALID,0.779688,
2011-03-22, 03:08:04,VALID,916.236,VALID,0,VALID,95.9026,VALID,0,VALID,17.2271,VALID,124,VALID,0.908984,
2011-03-22, 03:09:04,VALID,916.228,VALID,0,VALID,95.8797,VALID,0.107441,VALID,17.2077,VALID,124,VALID,0.469922,
2011-03-22, 03:10:04,VALID,916.209,VALID,0,VALID,95.9559,VALID,0,VALID,17.2869,VALID,124,VALID,0.324609,
2011-03-22, 03:11:04,VALID,916.198,VALID,0,VALID,95.8416,VALID,0,VALID,17.2479,VALID,124,VALID,0.292188,
2011-03-22, 03:12:04,VALID,916.167,VALID,0,VALID,95.6967,VALID,0.107441,VALID,17.2271,VALID,124,VALID,0.826172,
2011-03-22, 03:13:04,VALID,916.149,VALID,0,VALID,95.6357,VALID,0.107441,VALID,17.2271,VALID,138,VALID,0.639844,
2011-03-22, 03:14:04,VALID,916.181,VALID,0,VALID,95.5671,VALID,0.107441,VALID,17.2479,VALID,138,VALID,0.550781,
2011-03-22, 03:15:04,VALID,916.179,VALID,0,VALID,95.5138,VALID,0.107441,VALID,17.2271,VALID,138,VALID,0.658203,
2011-03-22, 03:16:04,VALID,916.195,VALID,0,VALID,95.5595,VALID,0.107441,VALID,17.2466,VALID,138,VALID,0.244141,
2011-03-22, 03:17:04,VALID,916.218,VALID,0,VALID,95.5824,VALID,0,VALID,17.2869,VALID,138,VALID,0.298438,
2011-03-22, 03:18:04,VALID,916.179,VALID,0,VALID,95.5748,VALID,0.107441,VALID,17.2856,VALID,138,VALID,0.303125,
2011-03-22, 03:19:04,VALID,916.151,VALID,0,VALID,95.4833,VALID,0.107441,VALID,17.2661,VALID,138,VALID,0.395703,
2011-03-22, 03:20:04,VALID,916.183,VALID,0,VALID,95.4909,VALID,0,VALID,17.2661,VALID,138,VALID,0,
2011-03-22, 03:21:04,VALID,916.177,VALID,0,VALID,95.5062,VALID,0,VALID,17.3051,VALID,138,VALID,0.183203,
2011-03-22, 03:22:04,VALID,916.187,VALID,0,VALID,95.5443,VALID,0,VALID,17.3259,VALID,138,VALID,0,
2011-03-22, 03:23:04,VALID,916.187,VALID,0,VALID,95.4299,VALID,0,VALID,17.3051,VALID,138,VALID,0.00585938,
2011-03-22, 03:24:04,VALID,916.175,VALID,0,VALID,95.3537,VALID,0,VALID,17.2856,VALID,138,VALID,0.380859,
2011-03-22, 03:25:04,VALID,916.161,VALID,0,VALID,95.3689,VALID,0,VALID,17.2856,VALID,138,VALID,0.537891,
2011-03-22, 03:26:04,VALID,916.159,VALID,0,VALID,95.3079,VALID,0.107441,VALID,17.2674,VALID,138,VALID,0.451562,
2011-03-22, 03:27:04,VALID,916.15,VALID,0,VALID,95.3003,VALID,0,VALID,17.2479,VALID,138,VALID,0.858203,
2011-03-22, 03:28:04,VALID,916.106,VALID,0,VALID,95.125,VALID,0,VALID,17.2479,VALID,138,VALID,1.1668,
2011-03-22, 03:29:04,VALID,916.133,VALID,0,VALID,94.9801,VALID,0.107441,VALID,17.2479,VALID,138,VALID,0.602734,
2011-03-22, 03:30:04,VALID,916.143,VALID,0,VALID,94.9268,VALID,0,VALID,17.2674,VALID,138,VALID,0.594922,
2011-03-22, 03:31:04,VALID,916.137,VALID,0,VALID,94.8734,VALID,0.107441,VALID,17.2674,VALID,138,VALID,0.81875,
2011-03-22, 03:32:04,VALID,916.133,VALID,0,VALID,94.6295,VALID,0,VALID,17.2466,VALID,137,VALID,0.870703,
2011-03-22, 03:33:04,VALID,916.131,VALID,0,VALID,94.5304,VALID,0,VALID,17.2466,VALID,137,VALID,0.592188,
2011-03-22, 03:34:04,VALID,916.115,VALID,0,VALID,94.1339,VALID,0,VALID,17.2674,VALID,137,VALID,0.911328,
2011-03-22, 03:35:04,VALID,916.138,VALID,0,VALID,93.6537,VALID,0,VALID,17.2661,VALID,137,VALID,0.745313,
2011-03-22, 03:36:04,VALID,916.131,VALID,0,VALID,93.6689,VALID,0,VALID,17.3454,VALID,137,VALID,0.55625,
2011-03-22, 03:37:04,VALID,916.163,VALID,0,VALID,93.8747,VALID,0,VALID,17.3844,VALID,137,VALID,0.388672,
2011-03-22, 03:38:04,VALID,916.182,VALID,0,VALID,94.0806,VALID,0,VALID,17.3844,VALID,137,VALID,0.2375,
2011-03-22, 03:39:04,VALID,916.202,VALID,0,VALID,94.0958,VALID,0,VALID,17.3844,VALID,137,VALID,0.335156,
2011-03-22, 03:40:04,VALID,916.186,VALID,0,VALID,94.1873,VALID,0,VALID,17.3844,VALID,137,VALID,0.555078,
2011-03-22, 03:41:04,VALID,916.194,VALID,0,VALID,94.2788,VALID,0.107441,VALID,17.3844,VALID,137,VALID,0.718359,
2011-03-22, 03:42:04,VALID,916.184,VALID,0,VALID,94.3931,VALID,0,VALID,17.3454,VALID,137,VALID,0.626562,